[[{"header":{"parameterUnit":"m.s-1","parameterCategory":1,"la1":30.2991,"la2":30.254,"lo1":-89.0895,"lo2":-89.0444,"dy":0.0017,"dx":0.0017,"nx":28,"ny":28,"refTime":"2023-10-19T03:00:00:Z","depth":0,"parameterNumber":2,"parameterNumberName":"U-component_of_WINDS"},"data":[0,0,0,0,0,0,0,0,0,0,0,0,0,0,0,0,0,0,0,0,0,0,0,0,0,0,0,0,0,0,0,0,0,0,0,0,0,0,0,0,0,0,0,0,0,0,0,0,0,0,0,0,0,0,0,0,0,0,1.357,1.357,0,1.3575,1.3575,1.3575,1.3535,1.3534,1.3533,1.3532,1.3537,1.3538,1.3539,0,0,0,0,0,0,0,0,0,0,0,0,0,1.3524,1.3525,1.357,1.357,1.357,1.3575,1.3575,1.3575,1.3535,1.3534,1.3533,1.3531,1.3536,1.3538,1.3539,0,0,0,0,0,0,0,0,0,0,0,0,0,1.3538,1.3525,1.357,1.3551,1.3549,1.3575,1.3575,1.3575,1.3536,1.3534,1.3532,1.3531,1.3536,1.3538,1.3539,1.3584,0,0,1.3545,1.3546,0,0,0,0,0,0,0,0,1.3537,1.354,1.3554,1.3552,1.355,1.3553,1.3561,1.3578,1.3536,1.3541,1.3532,1.353,1.3544,1.3545,1.3549,1.3584,1.3585,1.3545,1.3546,1.3547,1.3547,0,0,0,0,0,0,0,1.3536,1.3539,1.3572,1.3554,1.3552,1.3541,1.3542,1.3564,1.3552,1.354,1.3537,1.3539,1.3542,1.3548,1.3549,1.3585,1.3545,1.3547,1.3548,1.3548,1.3654,1.3656,0,0,0,0,0,0,1.3538,1.3539,1.3572,1.3572,1.354,1.3544,1.3544,1.3554,1.3551,1.3549,1.354,1.3537,1.3545,1.3547,1.3549,1.3599,1.3547,1.3549,1.355,1.3652,1.3655,1.3656,0,0,0,0,0,0,1.3537,1.3542,1.3572,1.3555,1.3558,1.3546,1.3558,1.3555,1.356,1.3551,1.3548,1.3548,1.3544,1.3547,1.3575,1.3599,1.3549,1.3551,1.365,1.3653,1.3655,1.3701,0,0,0,0,0,0,1.3536,1.3541,1.3559,1.3555,1.3559,1.3598,1.3559,1.3556,1.3563,1.3559,1.3558,1.3556,1.3543,1.3573,1.3577,1.36,1.3552,1.3648,1.3652,1.3655,1.3698,1.3705,1.3712,0,0,0,0,0,1.3535,1.3572,1.356,1.3564,1.358,1.36,1.3602,1.3586,1.3565,1.3582,1.3576,1.3556,1.3596,1.3576,1.358,1.3605,1.3647,1.3651,1.3654,1.3694,1.3704,1.3711,0,0,0,0,0,0,1.3579,1.3571,1.3558,1.3595,1.3599,1.3593,1.3614,1.3597,1.3606,1.3602,1.3582,1.3582,1.3614,1.3612,1.359,1.3647,1.3617,1.3622,1.3646,1.3655,1.3662,1.3661,1.3554,0,0,0,0,0,1.3593,1.361,1.3602,1.3636,1.3638,1.3626,1.3634,1.3622,1.3624,1.3625,1.3621,1.3624,1.3637,1.3646,1.3658,1.3698,1.3696,1.3716,1.3723,1.3729,1.3733,1.3752,1.376,1.3669,1.3669,1.3669,0,0,1.3623,1.362,1.3632,1.3645,1.3646,1.3663,1.3627,1.3647,1.3659,1.3628,1.3654,1.3652,1.3654,1.3687,1.3702,1.3687,1.3758,1.3734,1.3739,1.374,1.3757,1.3765,1.3773,1.3672,1.3672,1.3671,0,0,1.3684,1.3685,1.3712,1.3714,1.3715,1.3707,1.3713,1.371,1.3707,1.3733,1.3709,1.3723,1.3746,1.3748,1.3752,1.3812,1.3793,1.3817,1.3853,1.3871,1.3878,1.3885,1.3904,1.3912,1.3821,1.3821,1.3821,0,1.3721,1.3745,1.3728,1.3749,1.3754,1.3727,1.3753,1.3755,1.3761,1.3765,1.3748,1.3776,1.3775,1.3808,1.3822,1.3827,1.3833,1.3816,1.3879,1.3885,1.389,1.3909,1.3917,1.3824,1.3824,1.3823,1.3823,0,1.3789,1.3806,1.3828,1.3833,1.3841,1.3864,1.385,1.386,1.3847,1.384,1.3865,1.3864,1.3874,1.3881,1.3869,1.3911,1.3901,1.3882,1.3852,1.3902,1.3919,1.3926,1.3828,1.3827,1.3826,1.3825,0,0,1.3879,1.3873,1.3881,1.3882,1.3881,1.3894,1.3916,1.3925,1.3933,1.3937,1.3954,1.3974,1.3955,1.396,1.3948,1.3964,1.4009,1.3942,1.3942,1.3953,1.4054,1.4067,1.4075,1.3997,1.3999,1.4,1.4053,0,1.3937,1.3974,1.3958,1.3996,1.401,1.3984,1.4002,1.4003,1.3997,1.4008,1.4001,1.4015,1.3991,1.3993,1.4008,1.4001,1.4029,1.3997,1.4011,1.4012,1.401,1.4085,1.4099,1.4149,1.406,1.4061,1.4062,0,1.401,1.4017,1.4056,1.405,1.4055,1.4073,1.4078,1.409,1.409,1.4084,1.4088,1.4072,1.4092,1.4063,1.4089,1.4068,1.4073,1.407,1.4072,1.4071,1.4039,1.4084,1.4165,1.4172,1.4072,1.4071,1.4071,0,1.4069,1.4088,1.4113,1.4115,1.4109,1.4122,1.412,1.4118,1.4124,1.413,1.4133,1.4141,1.4145,1.4151,1.4137,1.4117,1.4164,1.4135,1.4159,1.4159,1.4169,1.4168,1.425,1.4175,1.4175,1.4175,1.4175,0,1.4135,1.4159,1.4139,1.4154,1.418,1.4162,1.4188,1.4183,1.4182,1.4195,1.4173,1.4186,1.4167,1.4178,1.4167,1.4189,1.4192,1.4187,1.4183,1.4188,1.4188,1.419,1.4185,1.4177,1.4177,1.4176,1.4176,0,1.4205,1.4192,1.4217,1.421,1.4208,1.4228,1.4221,1.4234,1.4226,1.4243,1.4246,1.4233,1.4244,1.4231,1.4242,1.4234,1.4264,1.4256,1.4263,1.426,1.4285,1.4282,1.4369,1.4378,1.4299,1.43,1.4301,0,1.4247,1.4265,1.4259,1.4265,1.4265,1.4277,1.4282,1.4265,1.4271,1.4272,1.4285,1.4294,1.4301,1.432,1.4311,1.4319,1.431,1.434,1.4311,1.4314,1.4308,1.4306,1.4307,1.4345,1.4346,1.4347,1.4348,0,1.4322,1.4314,1.4323,1.4329,1.4336,1.434,1.4342,1.4349,1.4331,1.4339,1.435,1.4355,1.4365,1.4374,1.4379,1.4377,1.4359,1.4357,1.4363,1.4367,1.4369,1.4366,1.4278,1.4355,1.4354,1.4354,1.4353,1.4353,1.4378,1.4391,1.4389,1.4398,1.4398,1.44,1.4412,1.4404,1.4413,1.4419,1.4409,1.4422,1.442,1.4425,1.4425,1.4434,1.4421,1.443,1.4432,1.4434,1.4437,1.4369,1.4436,1.4435,1.4435,1.4435,1.4435,0,1.445,1.4446,1.4455,1.4459,1.4466,1.4448,1.445,1.4457,1.4468,1.4468,1.4475,1.4486,1.4495,1.4487,1.4493,1.4502,1.4494,1.4505,1.4503,1.4502,1.4449,1.4442,1.4511,1.4511,1.4511,1.4511,1.4511,1.4511,1.4488,1.4509,1.4501,1.4522,1.4518,1.453,1.4532,1.4534,1.4533,1.4547,1.4554,1.4548,1.4544,1.455,1.4557,1.4554,1.4557,1.457,1.4564,1.4514,1.4506,1.4499,1.4493,1.4571,1.4571,1.4616,1.4617,1.4617]},{"header":{"parameterUnit":"m.s-1","parameterCategory":1,"la1":30.2991,"la2":30.254,"lo1":-89.0895,"lo2":-89.0444,"dy":0.0017,"dx":0.0017,"nx":28,"ny":28,"refTime":"2023-10-19T03:00:00:Z","depth":0,"parameterNumber":3,"parameterNumberName":"V-component_of_WINDS"},"data":[0,0,0,0,0,0,0,0,0,0,0,0,0,0,0,0,0,0,0,0,0,0,0,0,0,0,0,0,0,0,0,0,0,0,0,0,0,0,0,0,0,0,0,0,0,0,0,0,0,0,0,0,0,0,0,0,0,0,4.2111,4.2111,0,4.2072,4.2072,4.2071,4.1975,4.1973,4.1971,4.1969,4.193,4.1931,4.1932,0,0,0,0,0,0,0,0,0,0,0,0,0,4.2103,4.2103,4.2111,4.2111,4.211,4.2072,4.2072,4.2071,4.1975,4.1973,4.197,4.1968,4.193,4.1931,4.1932,0,0,0,0,0,0,0,0,0,0,0,0,0,4.2089,4.2103,4.2111,4.2058,4.2052,4.2072,4.2072,4.2071,4.1976,4.1973,4.197,4.1967,4.193,4.1931,4.1932,4.2001,0,0,4.1936,4.1937,0,0,0,0,0,0,0,0,4.209,4.209,4.2066,4.2061,4.2056,4.2025,4.2054,4.2048,4.1977,4.2005,4.1969,4.1965,4.1964,4.1963,4.1962,4.2,4.1998,4.1936,4.1937,4.1938,4.1938,0,0,0,0,0,0,0,4.2091,4.2091,4.2096,4.2066,4.2059,4.2036,4.203,4.2053,4.2002,4.2002,4.1995,4.1992,4.1961,4.1961,4.1961,4.1997,4.1936,4.1937,4.1938,4.1939,4.2087,4.209,0,0,0,0,0,0,4.21,4.2092,4.2097,4.2095,4.2066,4.2038,4.2032,4.2038,4.2002,4.1993,4.1994,4.1987,4.196,4.1959,4.1959,4.2035,4.1938,4.1939,4.194,4.2084,4.2088,4.2091,0,0,0,0,0,0,4.21,4.2101,4.2099,4.2091,4.2089,4.2042,4.2049,4.2039,4.2039,4.1996,4.1986,4.2004,4.1958,4.1957,4.1991,4.2032,4.1939,4.1941,4.208,4.2085,4.209,4.219,0,0,0,0,0,0,4.21,4.2102,4.2127,4.2093,4.209,4.2132,4.2052,4.204,4.2041,4.2032,4.2002,4.1994,4.1955,4.1989,4.1992,4.2033,4.1942,4.2076,4.2082,4.2088,4.2183,4.2198,4.221,0,0,0,0,0,4.21,4.2158,4.2129,4.213,4.2121,4.2134,4.2132,4.2086,4.2045,4.207,4.2042,4.1995,4.2028,4.1994,4.1996,4.2038,4.2073,4.2081,4.2088,4.2177,4.2195,4.221,0,0,0,0,0,0,4.22,4.2153,4.212,4.2168,4.2156,4.2118,4.2148,4.2107,4.2107,4.2098,4.2041,4.2035,4.2076,4.2061,4.2023,4.2101,4.2043,4.2051,4.211,4.2127,4.214,4.2142,4.1943,0,0,0,0,0,4.2227,4.2241,4.22,4.2246,4.2242,4.2196,4.22,4.2166,4.2151,4.2145,4.2119,4.2107,4.2114,4.212,4.2124,4.2181,4.2172,4.221,4.2224,4.2236,4.2243,4.2269,4.2285,4.2115,4.2115,4.2114,0,0,4.2284,4.226,4.2273,4.2266,4.2252,4.2267,4.2192,4.2213,4.2223,4.2148,4.2177,4.2159,4.2141,4.2186,4.2204,4.2174,4.2288,4.2245,4.2254,4.2255,4.2278,4.2294,4.2309,4.2119,4.2119,4.2118,0,0,4.2395,4.2379,4.2415,4.2403,4.2382,4.2352,4.2361,4.2329,4.2313,4.2342,4.2285,4.2298,4.2312,4.23,4.2297,4.2403,4.2359,4.2407,4.2478,4.2505,4.2518,4.253,4.2565,4.2579,4.2414,4.2414,4.2415,0,4.2468,4.2489,4.2439,4.2462,4.246,4.2392,4.2428,4.2419,4.2401,4.2401,4.2368,4.2383,4.2366,4.2406,4.2432,4.2432,4.244,4.2409,4.252,4.2531,4.2541,4.2575,4.2589,4.242,4.2419,4.2419,4.2418,0,4.2579,4.2595,4.2626,4.261,4.2612,4.2641,4.2595,4.2603,4.2569,4.2542,4.2572,4.255,4.2547,4.2555,4.2522,4.259,4.2572,4.253,4.247,4.2564,4.2594,4.2607,4.2428,4.2426,4.2424,4.2423,0,0,4.275,4.2706,4.2718,4.2709,4.2682,4.2692,4.2719,4.2716,4.2723,4.2714,4.2733,4.2747,4.2708,4.2703,4.2669,4.2693,4.2776,4.2648,4.2646,4.267,4.2847,4.2877,4.2893,4.2747,4.275,4.2751,4.2848,0,4.2853,4.2894,4.2849,4.29,4.2912,4.2849,4.2871,4.2857,4.2833,4.284,4.2813,4.2822,4.2772,4.2768,4.2789,4.2761,4.281,4.2754,4.2764,4.2765,4.2768,4.2909,4.2941,4.3033,4.286,4.2862,4.2863,0,4.2977,4.2972,4.3024,4.2992,4.2995,4.3017,4.3009,4.3018,4.3,4.2981,4.2976,4.2934,4.2957,4.29,4.293,4.2893,4.2895,4.2882,4.2884,4.2881,4.2818,4.2908,4.3061,4.3074,4.2882,4.288,4.2879,0,4.3094,4.3101,4.3131,4.3126,4.309,4.3106,4.3092,4.3072,4.3072,4.3067,4.3066,4.3064,4.3063,4.3062,4.302,4.2983,4.3055,4.2995,4.3038,4.3039,4.3054,4.3054,4.3208,4.306,4.306,4.3059,4.3059,0,4.3211,4.3245,4.3183,4.3202,4.3237,4.3186,4.3223,4.3202,4.3184,4.3198,4.3144,4.3157,4.3103,4.3111,4.3079,4.3107,4.3108,4.3092,4.3082,4.3095,4.3097,4.3094,4.3085,4.3063,4.3062,4.3062,4.3061,0,4.3346,4.3307,4.3336,4.3299,4.3291,4.3319,4.3287,4.3303,4.3275,4.3293,4.3294,4.3251,4.3257,4.3216,4.3216,4.3194,4.3237,4.3218,4.3243,4.3236,4.3281,4.3276,4.3437,4.3454,4.3298,4.3299,4.3301,0,4.3423,4.3446,4.3412,4.3417,4.3406,4.3415,4.3415,4.3366,4.3368,4.335,4.3367,4.3369,4.3368,4.3381,4.335,4.3349,4.3328,4.3384,4.3327,4.3339,4.3326,4.3324,4.3325,4.3395,4.3397,4.3399,4.34,0,4.3561,4.354,4.3542,4.3538,4.3539,4.3533,4.3524,4.3531,4.3478,4.3484,4.3489,4.3488,4.3487,4.3489,4.3482,4.3467,4.3424,4.3419,4.3428,4.344,4.3452,4.3444,4.3273,4.3414,4.3413,4.3412,4.3411,4.3411,4.3667,4.3685,4.3663,4.3667,4.3655,4.3647,4.3659,4.3633,4.3637,4.3631,4.3603,4.3613,4.3594,4.358,4.3569,4.3576,4.3549,4.3564,4.3567,4.3571,4.3577,4.3454,4.3575,4.3575,4.3574,4.3574,4.3573,0,4.3801,4.3784,4.3788,4.3776,4.3779,4.3739,4.3727,4.3732,4.3741,4.3727,4.3727,4.3733,4.3734,4.3703,4.37,4.3712,4.3693,4.3713,4.371,4.3707,4.3603,4.3594,4.3729,4.3729,4.3729,4.3729,4.3729,4.3729,4.3871,4.3898,4.3875,4.3895,4.3877,4.3886,4.3882,4.3875,4.3863,4.3871,4.3872,4.3852,4.383,4.3826,4.3825,4.3816,4.3817,4.3844,4.3828,4.373,4.3715,4.3701,4.3691,4.3845,4.3845,4.3931,4.3931,4.3932]}]]